Regional Weather Roundup
Issued by NWS

Home | Current Version | Previous Version | Graphics & Text | Print | Product List | Glossary On
Versions: 1 2 3 4 5 6 7 8 9 10 11 12 13 14 15 16 17 18 19 20 21 22 23 24 25 26 27 28 29 30 31 32 33 34 35 36 37 38 39 40 41 42 43 44 45 46 47 48 49 50
000
ASUS43 KBIS 241602
RWRND

NORTH DAKOTA REGIONAL WEATHER ROUNDUP
NATIONAL WEATHER SERVICE BISMARCK ND
1000 AM CST TUE JAN 24 2017

NOTE: "FAIR" INDICATES FEW OR NO CLOUDS BELOW 12,000 FEET WITH NO
SIGNIFICANT WEATHER AND/OR OBSTRUCTIONS TO VISIBILITY.


NDZ001>003-009>011-017-241700-
NORTHWEST NORTH DAKOTA

CITY           SKY/WX    TMP DP  RH WIND       PRES   REMARKS
WILLISTON      CLOUDY    19  14  81 W5        29.91R WCI  12
MINOT          CLOUDY    23  16  74 W10       29.85S WCI  12
$$

NDZ018>021-031>035-040>046-241700-
SOUTHWEST NORTH DAKOTA

CITY           SKY/WX    TMP DP  RH WIND       PRES   REMARKS
BISMARCK       CLOUDY    25  19  78 N7        29.90R WCI  17
DICKINSON      CLOUDY    20  16  84 N12       29.83R WCI   8
GARRISON         N/A     21  17  84 NW10      29.86R WCI  10
HETTINGER ARPT CLOUDY    20  18  92 N9        29.83S WCI   9
$$

NDZ004>008-012>016-024-026-027-054-241700-
NORTHEAST NORTH DAKOTA

CITY           SKY/WX    TMP DP  RH WIND       PRES   REMARKS
GRAND FORKS    CLOUDY    27  20  75 W8        29.88R WCI  19
GRND FRKS AFB  CLOUDY    26  20  79 W6        29.87S WCI  19
DEVILS LAKE    FAIR      21  18  88 W9        29.84F WCI  11
$$

NDZ022-023-025-028>030-036>039-047>053-241700-
SOUTHEAST NORTH DAKOTA

CITY           SKY/WX    TMP DP  RH WIND       PRES   REMARKS
FARGO          CLOUDY    28  22  78 N8        29.90S WCI  20
JAMESTOWN      CLOUDY    23  19  85 NW8       29.86S WCI  14
$$




USA.gov is the U.S. government's official web portal to all federal, state and local government web resources and services.